EW5975 Weather Reports


Display with metric or nautical units.
time (UTC)temp
F
wind
direction
speed
MPH
gust
MPH
rain 1hr
in
rain 24hr
in
rain mn
in
humidity
%
barometer
mb
20260502164038 68 113 1.0 2.0 0.00 0.00 0.00 42 1021.1
20260502163016 69 135 1.0 4.0 0.00 0.00 0.00 40 1021.1
20260502162037 69 0.0 2.0 0.00 0.00 0.00 39 1021.3
20260502161016 70 180 1.0 3.0 0.00 0.00 0.00 39 1021.5
20260502152038 70 113 2.0 5.0 0.00 0.00 0.00 37 1022.1
20260502151016 71 113 2.0 5.0 0.00 0.00 0.00 37 1022.1
20260502123017 72 203 2.0 5.0 0.00 0.00 0.00 33 1024.0
20260502122016 72 135 3.0 6.0 0.00 0.00 0.00 34 1024.2
20260502121016 71 113 2.0 8.0 0.00 0.00 0.00 33 1024.2
20260502115036 71 135 3.0 8.0 0.00 0.00 0.00 33 1024.3
20260502114036 71 203 2.0 7.0 0.00 0.00 0.00 34 1024.4
20260502113016 72 135 3.0 7.0 0.00 0.00 0.00 33 1024.5
20260502112015 72 113 2.0 7.0 0.00 0.00 0.00 32 1024.5
20260502111015 72 113 2.0 5.0 0.00 0.00 0.00 32 1024.6
20260502110015 72 225 2.0 5.0 0.00 0.00 0.00 32 1024.8
20260502105015 72 113 2.0 6.0 0.00 0.00 0.00 32 1024.9
20260502104035 72 113 3.0 6.0 0.00 0.00 0.00 34 1025.0
20260502103037 72 113 2.0 6.0 0.00 0.00 0.00 32 1025.1
20260502102015 72 113 3.0 8.0 0.00 0.00 0.00 32 1025.2
20260502101015 72 225 3.0 7.0 0.00 0.00 0.00 32 1025.3
20260502091037 71 113 2.0 6.0 0.00 0.00 0.00 35 1025.4
20260502071037 62 203 1.0 2.0 0.00 0.00 0.00 55 1025.7
20260502070017 60 0.0 3.0 0.00 0.00 0.00 64 1025.7
20260502065017 58 0.0 1.0 0.00 0.00 0.00 66 1025.5
20260502064017 57 0.0 2.0 0.00 0.00 0.00 68 1025.4
20260502063017 55 0.0 1.0 0.00 0.00 0.00 71 1025.4
20260502062017 53 0.0 1.0 0.00 0.00 0.00 73 1025.2
20260502061038 52 0.0 0.0 0.00 0.00 0.00 76 1025.1
20260502060017 51 0.0 0.0 0.00 0.00 0.00 77 1025.2
20260502055017 51 0.0 0.0 0.00 0.00 0.00 78 1025.1
20260502054017 50 0.0 0.0 0.00 0.00 0.00 78 1025.1
20260502053017 50 0.0 0.0 0.00 0.00 0.00 78 1025.2
20260502052016 49 0.0 0.0 0.00 0.00 0.00 79 1024.9
20260502051017 49 0.0 0.0 0.00 0.00 0.00 79 1024.9
20260502050017 50 0.0 0.0 0.00 0.00 0.00 78 1024.9
20260502045037 50 0.0 0.0 0.00 0.00 0.00 78 1024.9
20260502044016 50 0.0 0.0 0.00 0.00 0.00 77 1024.9
20260502043057 50 0.0 0.0 0.00 0.00 0.00 76 1025.0
20260502042016 50 0.0 0.0 0.00 0.00 0.00 76 1025.1
20260502041017 51 0.0 0.0 0.00 0.00 0.00 76 1025.1
20260502040016 51 0.0 0.0 0.00 0.00 0.00 75 1025.1
20260502035017 51 0.0 0.0 0.00 0.00 0.00 75 1025.0
20260502034018 51 0.0 0.0 0.00 0.00 0.00 75 1024.9
20260502033018 51 0.0 0.0 0.00 0.00 0.00 75 1024.8
20260502032016 51 0.0 0.0 0.00 0.00 0.00 75 1024.8
20260502031016 51 0.0 0.0 0.00 0.00 0.00 75 1024.9
20260502030016 52 0.0 0.0 0.00 0.00 0.00 74 1024.8
20260502025038 52 0.0 0.0 0.00 0.00 0.00 74 1024.8
20260502024016 52 0.0 0.0 0.00 0.00 0.00 74 1024.7
20260502023016 52 0.0 0.0 0.00 0.00 0.00 73 1024.7
20260502022018 52 0.0 0.0 0.00 0.00 0.00 73 1024.7
20260502021036 52 0.0 0.0 0.00 0.00 0.00 73 1024.8
20260502020016 53 0.0 0.0 0.00 0.00 0.00 72 1024.8
20260502015016 53 0.0 0.0 0.00 0.00 0.00 71 1024.8
20260502014017 53 0.0 0.0 0.00 0.00 0.00 71 1024.8
20260502013036 53 0.0 0.0 0.00 0.00 0.00 70 1024.7
20260502012038 53 0.0 0.0 0.00 0.00 0.00 70 1024.7
20260502011036 54 0.0 0.0 0.00 0.00 0.00 69 1024.7
20260502010016 54 0.0 0.0 0.00 0.00 0.00 69 1024.8
20260502005018 54 0.0 0.0 0.00 0.00 0.00 68 1024.8
20260502004016 54 0.0 0.0 0.00 0.00 0.00 68 1024.9
20260502003016 54 0.0 0.0 0.00 0.00 0.00 68 1024.8
20260502002016 54 0.0 0.0 0.00 0.00 0.00 68 1024.9
20260502001016 54 0.0 0.0 0.00 0.00 0.00 68 1024.9
20260502000016 54 0.0 0.0 0.00 0.00 0.00 68 1024.9
20260501235017 55 0.0 0.0 0.00 0.00 0.00 67 1024.9
20260501234016 55 0.0 0.0 0.00 0.00 0.00 66 1024.9
20260501233016 55 0.0 0.0 0.00 0.00 0.00 67 1025.0
20260501232017 55 0.0 0.0 0.00 0.00 0.00 66 1025.0
20260501231016 56 0.0 1.0 0.00 0.00 0.00 66 1025.0
20260501230016 56 0.0 0.0 0.00 0.00 0.00 65 1024.9
20260501225036 56 0.0 0.0 0.00 0.00 0.00 64 1024.9
20260501224016 56 0.0 0.0 0.00 0.00 0.00 64 1024.9
20260501223037 56 0.0 0.0 0.00 0.00 0.00 64 1024.8
20260501222015 56 0.0 0.0 0.00 0.00 0.00 64 1024.8
20260501221016 56 0.0 0.0 0.00 0.00 0.00 64 1024.6
20260501220017 57 0.0 0.0 0.00 0.00 0.00 64 1024.5
20260501215017 57 0.0 0.0 0.00 0.00 0.00 64 1024.5
20260501214058 57 0.0 0.0 0.00 0.00 0.00 65 1024.6
20260501213016 57 0.0 0.0 0.00 0.00 0.00 64 1024.6
20260501212017 57 0.0 0.0 0.00 0.00 0.00 63 1024.5
20260501211015 58 0.0 0.0 0.00 0.00 0.00 64 1024.4
20260501210015 58 0.0 0.0 0.00 0.00 0.00 63 1024.5
20260501205016 58 0.0 0.0 0.00 0.00 0.00 63 1024.4
20260501204018 58 0.0 0.0 0.00 0.00 0.00 65 1024.3
20260501203038 58 0.0 0.0 0.00 0.00 0.00 64 1024.3
20260501202017 58 0.0 0.0 0.00 0.00 0.00 64 1024.2
20260501201019 58 0.0 0.0 0.00 0.00 0.00 64 1024.1
20260501200017 59 0.0 0.0 0.00 0.00 0.00 64 1024.0
20260501195018 59 0.0 0.0 0.00 0.00 0.00 64 1024.1
20260501194019 59 0.0 0.0 0.00 0.00 0.00 65 1023.9
20260501193017 59 0.0 0.0 0.00 0.00 0.00 66 1023.7
20260501192017 59 0.0 1.0 0.00 0.00 0.00 66 1023.6
20260501191017 60 0.0 0.0 0.00 0.00 0.00 67 1023.5
20260501190017 60 0.0 0.0 0.00 0.00 0.00 68 1023.3
20260501185017 60 0.0 0.0 0.00 0.00 0.00 68 1023.2
20260501184017 61 0.0 0.0 0.00 0.00 0.00 67 1023.2
20260501183017 62 0.0 0.0 0.00 0.00 0.00 66 1023.1
20260501182017 62 0.0 0.0 0.00 0.00 0.00 65 1023.0
20260501181017 63 0.0 0.0 0.00 0.00 0.00 65 1023.0
20260501180017 63 0.0 0.0 0.00 0.00 0.00 63 1023.0
20260501175037 64 0.0 0.0 0.00 0.00 0.00 62 1023.0
20260501174017 64 0.0 2.0 0.00 0.00 0.00 60 1023.0
20260501173017 65 0.0 1.0 0.00 0.00 0.00 59 1023.0
20260501172017 66 0.0 0.0 0.00 0.00 0.00 58 1023.0